Weather in Popilnia

Ukraine / Zhytomyr Region     49˚56′41″N   29˚27′33″E
temp.,
°C
wind,
m/s
gust,
m/s
humid.,
%
clouds,
%
prec.,
mm/h
press.,
hPa
HPBL,
m
3 december, thu
thu323:00−2˚se239612 0.0 102775
02:00−2˚se23966 0.0 102781
05:00−3˚se239520 0.0 102645
08:00−1˚se369556 0.1 1026306
11:00−1˚se4789100 0.0 1026432
14:00+1˚sse478898 0.0 1025592
17:00ese4896100 0.0 1024291
20:00se5996100 0.0 1023307
4 december, fri
fri423:00+1˚se5997100 0.0 1023346
02:00+1˚ese51097100 0.0 1022337
05:00+2˚se61296100 0.0 1021416
08:00+2˚se71296100 0.0 1021446
11:00+4˚sse61388100 0.0 1021759
14:00+5˚se7129191 0.0 1021525
17:00+3˚se71492100 0.0 1021467
20:00+2˚se8129497 0.0 1022496
5 december, sat
sat523:00+3˚sse71293100 0.0 1023644
02:00+3˚se71291100 0.0 1024520
05:00+3˚se71291100 0.0 1024553
08:00+3˚sse71194100 0.0 1025595
11:00+3˚se71191100 0.0 1026635
14:00+3˚se71187100 0.0 1026635
17:00+3˚se6108586 0.0 1027546
20:00+1˚se6128776 0.0 1028425
6 december, sun
sun623:00se612860 0.0 1029421
02:00se611840 0.0 1030449
05:00−1˚se613820 0.0 1030456
08:00−1˚se612680 0.0 1031438
11:00se712440 0.0 1031478
14:00+1˚ese611410 0.0 1030548
17:00−1˚ese612540 0.0 1030447
20:00−2˚ese714570 0.0 1032504
7 december, mon
mon723:00−3˚ese713550 0.0 1032487
02:00−4˚ese613560 0.0 1032484
05:00−4˚ese612670 0.0 1031518
08:00−5˚ese713680 0.0 1031505
11:00−3˚ese712530 0.0 1031555
14:00−1˚ese712520 0.0 1030617
17:00−3˚ese714620 0.0 1030645
20:00−3˚ese7136210 0.0 1030655